Total_Precipitation_Accumulation
1.55 1.55 1.54 1.47 1.46 1.42 1.46 1.41 1.27 1.04 0.81 0.58 0.46 0.39 0.45 0.51 0.76 0.73 0.60 0.64 0.58 0.45 0.36 0.29 0.23 0.20 0.22 0.28 0.36 0.44 0.53 0.55 0.50 0.43 0.41 0.38 0.35 0.34
1.35 1.39 1.41 1.41 1.46 1.46 1.49 1.50 1.39 1.19 0.99 0.78 0.65 0.54 0.58 0.56 0.67 0.58 0.63 0.80 0.67 0.54 0.42 0.33 0.26 0.22 0.19 0.18 0.19 0.20 0.22 0.26 0.29 0.32 0.32 0.33 0.35 0.36
1.02 1.05 1.12 1.19 1.26 1.30 1.39 1.43 1.41 1.30 1.00 0.89 0.78 0.65 0.68 0.69 0.71 0.64 0.68 0.71 0.65 0.60 0.48 0.39 0.34 0.28 0.24 0.21 0.18 0.17 0.17 0.19 0.22 0.25 0.28 0.30 0.28 0.26
0.77 0.82 0.88 0.95 1.04 1.11 1.16 1.21 1.29 1.33 1.20 1.02 0.88 0.74 0.66 0.69 0.83 0.87 0.85 0.78 0.76 0.82 0.75 0.59 0.49 0.40 0.32 0.26 0.22 0.20 0.19 0.19 0.19 0.20 0.23 0.27 0.30 0.28
0.52 0.56 0.65 0.72 0.83 0.90 0.94 1.00 1.10 1.17 1.23 1.09 1.00 0.92 0.78 0.73 0.84 0.85 0.91 1.08 1.00 1.05 1.14 0.94 0.71 0.57 0.45 0.37 0.32 0.28 0.25 0.21 0.19 0.19 0.21 0.25 0.27 0.30
0.49 0.49 0.52 0.54 0.59 0.69 0.81 0.97 1.08 1.20 1.25 1.15 1.11 1.08 0.96 0.88 0.94 1.00 1.07 1.16 1.22 1.10 1.11 1.07 0.98 0.84 0.68 0.57 0.51 0.44 0.39 0.34 0.32 0.29 0.27 0.26 0.25 0.26
0.46 0.51 0.52 0.48 0.47 0.51 0.51 0.67 0.84 1.04 1.18 1.22 1.21 1.23 1.16 1.07 0.98 1.04 1.16 1.29 1.39 1.39 1.28 1.14 1.09 0.96 0.85 0.75 0.67 0.60 0.56 0.51 0.47 0.42 0.38 0.35 0.32 0.29
0.51 0.54 0.52 0.46 0.49 0.48 0.46 0.48 0.56 0.68 0.85 0.96 1.04 1.09 1.13 1.20 1.27 1.29 1.31 1.37 1.45 1.46 1.32 1.33 1.25 1.12 0.96 0.81 0.78 0.78 0.74 0.68 0.60 0.52 0.44 0.39 0.38 0.38
0.47 0.61 0.67 0.60 0.59 0.62 0.63 0.56 0.48 0.45 0.57 0.74 0.86 0.90 0.97 1.08 1.27 1.34 1.37 1.37 1.28 1.33 1.21 1.26 1.22 1.10 1.00 0.94 0.92 0.85 0.83 0.76 0.68 0.60 0.54 0.49 0.45 0.44
0.42 0.54 0.79 0.83 0.73 0.69 0.73 0.82 0.73 0.56 0.53 0.56 0.69 0.78 0.81 0.97 1.28 1.49 1.47 1.27 1.20 1.25 1.17 1.17 1.13 1.04 0.97 0.93 0.95 0.85 0.80 0.74 0.68 0.63 0.59 0.55 0.52 0.51
0.36 0.48 0.64 0.79 0.73 0.69 0.69 0.76 0.80 0.69 0.61 0.60 0.55 0.60 0.70 0.87 1.13 1.37 1.45 1.39 1.24 1.20 1.07 0.98 1.01 1.03 1.06 1.00 0.95 0.91 0.81 0.78 0.75 0.71 0.66 0.61 0.61 0.65
0.22 0.38 0.54 0.54 0.50 0.55 0.67 0.78 0.87 0.71 0.61 0.68 0.67 0.68 0.68 0.86 1.17 1.36 1.43 1.37 1.24 1.20 1.12 1.02 1.00 1.02 1.19 1.17 1.01 0.96 0.90 0.88 0.84 0.80 0.76 0.73 0.76 0.76
0.15 0.29 0.38 0.35 0.34 0.41 0.53 0.67 0.80 0.66 0.68 0.82 0.85 0.83 0.87 0.92 1.05 1.17 1.32 1.39 1.26 1.09 1.05 1.13 1.17 1.07 1.01 1.04 1.06 1.00 0.92 0.86 0.83 0.81 0.80 0.79 0.80 0.77
0.16 0.22 0.26 0.22 0.22 0.26 0.33 0.45 0.57 0.64 0.73 0.85 0.93 0.89 0.84 0.89 0.94 0.98 1.07 1.16 1.12 1.06 0.98 0.91 0.96 0.90 0.81 0.74 0.76 0.86 0.90 0.87 0.82 0.78 0.77 0.85 0.82 0.81
0.13 0.17 0.18 0.19 0.22 0.24 0.27 0.35 0.49 0.68 0.85 0.85 0.79 0.76 0.79 0.84 0.83 0.92 1.01 1.05 1.06 1.04 0.94 0.79 0.76 0.77 0.73 0.67 0.62 0.65 0.76 0.83 0.80 0.74 0.71 0.73 0.73 0.74
0.13 0.13 0.14 0.19 0.22 0.23 0.29 0.40 0.55 0.75 0.83 0.75 0.70 0.61 0.63 0.78 0.82 0.81 0.85 0.88 0.93 0.97 0.88 0.82 0.77 0.73 0.70 0.66 0.63 0.60 0.59 0.63 0.70 0.74 0.73 0.70 0.70 0.70
0.10 0.17 0.22 0.28 0.34 0.40 0.50 0.57 0.58 0.62 0.68 0.62 0.65 0.60 0.57 0.64 0.68 0.67 0.68 0.65 0.67 0.67 0.69 0.70 0.73 0.70 0.65 0.64 0.64 0.61 0.59 0.55 0.55 0.63 0.70 0.71 0.69 0.69
0.13 0.22 0.30 0.38 0.43 0.51 0.55 0.56 0.56 0.57 0.60 0.57 0.56 0.56 0.51 0.51 0.52 0.54 0.56 0.58 0.62 0.60 0.54 0.50 0.52 0.58 0.60 0.64 0.62 0.56 0.58 0.59 0.61 0.63 0.61 0.59 0.57 0.60
0.10 0.23 0.43 0.47 0.43 0.48 0.51 0.50 0.42 0.36 0.36 0.38 0.37 0.36 0.35 0.36 0.39 0.41 0.42 0.47 0.50 0.48 0.50 0.50 0.48 0.48 0.49 0.47 0.45 0.42 0.49 0.53 0.55 0.58 0.59 0.56 0.51 0.51
0.07 0.14 0.27 0.31 0.33 0.37 0.35 0.32 0.25 0.19 0.19 0.19 0.19 0.20 0.21 0.24 0.26 0.30 0.30 0.29 0.35 0.37 0.39 0.42 0.41 0.41 0.42 0.43 0.39 0.35 0.34 0.39 0.41 0.43 0.46 0.50 0.53 0.63
0.07 0.12 0.15 0.17 0.18 0.16 0.15 0.14 0.12 0.12 0.11 0.10 0.12 0.14 0.15 0.16 0.16 0.17 0.21 0.24 0.24 0.25 0.28 0.31 0.32 0.35 0.36 0.39 0.39 0.32 0.29 0.34 0.36 0.34 0.39 0.45 0.46 0.45
0.05 0.06 0.07 0.07 0.06 0.05 0.05 0.06 0.07 0.09 0.08 0.07 0.07 0.09 0.11 0.12 0.11 0.11 0.12 0.13 0.16 0.19 0.22 0.25 0.28 0.29 0.29 0.33 0.33 0.30 0.29 0.31 0.35 0.43 0.41 0.39 0.35 0.32
0.03 0.03 0.03 0.03 0.03 0.03 0.04 0.04 0.05 0.08 0.09 0.08 0.08 0.08 0.10 0.10 0.10 0.10 0.09 0.09 0.11 0.14 0.17 0.20 0.23 0.24 0.25 0.25 0.26 0.27 0.28 0.29 0.31 0.34 0.35 0.37 0.33 0.30